Location: Akdamlar
(36.8729°N, 30.5187°E)
Time: 11:40:22
(UTC+00:00)

Daily predictions for brighter satellites

Satellite Brightness Start Highest point End
(mag) Time Altitude Azimuth Time Altitude Azimuth Time Altitude Azimuth
YAOGAN 11 4.5 15:06:52 10° N 15:11:24 73° WNW 15:15:55 10° SSW
SMAP 3.2 15:07:25 10° SSE 15:11:56 54° ENE 15:16:29 10° N
Cosmos 2292 Rocket 4.5 15:08:25 10° S 15:13:32 82° W 15:20:19 10° N
SJ-7 4.3 15:09:50 10° SSE 15:13:47 88° ENE 15:17:48 10° NNW
NOSS 2-1 (E) 4.4 15:09:24 10° NW 15:14:06 79° WSW 15:20:54 10° SSE
Helios 1A 3.6 15:11:07 10° NNE 15:14:55 34° E 15:18:41 10° SSE
Cosmos-2242 3.7 15:17:45 10° SSE 15:21:40 34° E 15:25:36 10° NNE
Cosmos 2263 Rocket 2.2 15:16:50 10° SSW 15:22:23 87° WNW 15:27:59 10° NNE
CZ-2D R/B 4.2 15:20:26 10° S 15:24:01 50° W 15:27:36 10° NNW
Cosmos 1844 Rocket 4.2 15:20:58 10° SE 15:24:18 16° E 15:27:13 11° ENE
Cosmos 2227 Rocket 4.1 15:20:27 10° WSW 15:25:11 27° WNW 15:29:56 10° N
Cosmos 1500 2.9 15:24:24 10° N 15:27:55 64° E 15:31:24 10° SSE
Cosmos 1437 Rocket 2.9 15:27:30 10° NNW 15:31:13 71° W 15:34:57 10° S
CORIOLIS 4.1 15:26:49 10° SSE 15:32:09 85° ENE 15:37:32 10° NNW
CZ-2C R/B 3.7 15:31:18 10° S 15:34:43 47° W 15:38:10 10° NNW
USA 276 2.9 15:33:30 10° W 15:35:42 30° NNW 15:37:25 14° NNE
Cosmos 2151 3.4 15:33:15 10° NNW 15:37:29 66° W 15:41:41 10° S
Helios 1B rocket 4.5 15:35:05 10° SSW 15:38:34 31° W 15:42:05 10° NW
CZ-4B R/B 3.7 15:34:57 10° SE 15:39:53 49° ENE 15:44:43 10° N
CZ-4B R/B 3.7 15:37:34 10° S 15:41:08 79° WSW 15:44:45 10° NNW
ATLAS 2AS CENTAUR R/B 4.3 15:38:27 10° N 15:41:11 12° NNE 15:42:50 11° NE
Cosmos 1812 2.6 15:39:41 10° S 15:43:18 56° E 15:46:54 10° NNE
Cosmos 407 Rocket 4.4 15:44:56 10° N 15:49:07 24° ENE 15:52:49 12° ESE
APEX 2.7 15:47:46 10° S 15:50:58 56° ESE 15:52:23 26° NE
Meteor 1-31 Rocket 3.3 15:47:31 10° S 15:51:09 57° W 15:54:48 10° NNW
SKYMED 2 3.6 15:47:21 10° NNE 15:51:38 58° E 15:55:54 10° S
SL-16 R/B 2.9 15:48:48 10° NNW 15:54:23 59° WSW 15:59:54 10° S
Meteor 2-2 Rocket 4.3 15:49:57 10° S 15:55:31 59° E 16:01:13 10° NNE
Cosmos 1818 3.6 15:50:32 10° SSW 15:55:49 58° ESE 15:59:44 18° NE
JB-3 4.5 15:55:22 16° NNE 15:58:10 46° E 16:01:50 10° S
Lacrosse 4 Rocket 2.5 15:55:04 10° N 15:58:24 24° NE 15:58:24 24° NE
Cosmos 2344 3.5 15:51:18 10° SSW 15:59:23 83° ESE 16:06:05 13° NE
Radarsat Rocket 3.9 15:54:32 10° SSE 16:00:13 57° ENE 16:05:59 10° N
Cosmos 1782 3.1 15:56:50 10° SSE 16:00:30 42° E 16:02:24 24° NE
CZ-2C R/B 1.0 15:59:48 10° W 16:02:09 38° SSW 16:02:44 32° SSE
H-2A R/B 2.6 16:04:12 10° WSW 16:07:00 38° S 16:12:09 15° ESE
Cosmos 1943 3.3 16:03:03 10° NNW 16:08:33 51° ENE 16:14:00 10° SE
Cosmos 1812 Rocket 3.5 16:05:22 10° S 16:09:41 81° W 16:14:02 10° N
ADEOS 3.6 16:08:37 10° SSE 16:13:39 52° ENE 16:18:42 10° N
Cosmos 1371 Rocket 4.5 16:10:40 10° SSE 16:15:25 37° E 16:16:21 34° ENE
Tiangong -0.7 16:12:45 10° W 16:15:41 34° SSW 16:17:06 22° SSE
SEDSat Delta rocket 4.2 16:12:00 10° WSW 16:16:48 37° S 16:18:38 27° SE
SL-08 R/B 3.1 16:15:08 13° NNE 16:19:17 83° ESE 16:23:54 10° SSW
USA 234 4.4 16:16:20 13° NNE 16:21:26 35° NNW 16:27:12 10° W
Cosmos 44 3.8 16:18:43 10° NW 16:23:58 64° WSW 16:28:56 10° SSE
Cosmos 1844 3.9 16:20:09 10° S 16:25:43 52° ESE 16:27:29 38° ENE
Meteor 1-25 Rocket 4.1 16:22:06 10° N 16:27:46 88° E 16:33:20 10° S
Cosmos 1023 Rocket 4.3 16:23:06 10° NNW 16:28:16 85° ENE 16:33:21 10° SSE
Hubble Space Telescope 3.3 16:27:42 10° SW 16:29:55 14° SSW 16:32:08 10° SSE
SME Rocket 4.0 16:28:26 30° ESE 16:30:45 49° ENE 16:37:40 10° N
Cosmos 2026 Rocket 4.0 16:28:13 10° S 16:34:25 86° W 16:40:46 10° N
Cosmos 1420 Rocket 3.9 16:29:57 10° S 16:35:04 63° ESE 16:36:05 52° NE
Meteor 1-26 Rocket 4.1 16:31:27 10° S 16:36:50 65° E 16:39:00 37° NNE
ISS -1.9 16:34:00 10° NW 16:35:28 23° NNW 16:35:28 23° NNW
COSMO-SKYMED 1 4.0 16:35:36 10° N 16:39:36 37° WNW 16:43:37 10° SW
Cosmos 1624 Rocket 3.9 16:35:10 10° S 16:40:20 63° ESE 16:40:43 61° E
ATLAS CENTAUR R/B 3.3 16:38:51 10° NW 16:44:18 70° NE 16:51:14 22° SE
Lacrosse 5 1.8 16:39:51 10° SW 16:44:53 81° NW 16:45:42 63° NNE
Cosmos 1092 Rocket 4.3 16:41:37 10° SSW 16:47:41 65° W 16:53:47 10° N
Cosmos 1933 4.1 16:44:46 10° SSW 16:48:38 49° W 16:49:48 37° NNW
Cosmos 1140 Rocket 4.0 16:49:25 10° NNW 16:54:28 56° WSW 16:59:28 10° S
Cosmos 1844 Rocket 3.1 17:02:08 10° SW 17:07:36 58° WNW 17:08:55 46° NNW
Cosmos 2221 3.7 17:04:51 10° SSW 17:07:43 37° SW 17:07:43 37° SW
Meteor 1-5 Rocket 4.2 17:03:51 10° N 17:09:34 84° W 17:15:26 10° S
COSMOS 2455 3.8 17:09:14 10° S 17:12:38 34° S 17:12:38 34° S
Cosmos 1603 4.4 17:19:45 10° NNW 17:25:15 52° WSW 17:26:13 46° SW
ATLAS 2AS CENTAUR R/B 4.0 17:27:14 10° NNW 17:30:17 27° N 17:30:17 27° N
Lacrosse 4 Rocket 4.1 17:33:20 10° NW 17:34:33 16° WNW 17:34:33 16° WNW
